06:03
Airports
History
Links
Donate
Help keep this website running!
PayPal
Bitcoin
Information on this page is community maintained and may be outdated or inaccurate and is intended for reference only or PC simulator navigating!
Always use approved charts for navigating.
EGKL
Deanland
Deanland (EGKL)
England, United Kingdom
4
Lat/Lng:50° 52' 54.21" N / 0° 9' 21.24" E
50.881724 / 0.155899
Elevation:60'ft 18mMSL
ID / ICAO:EGKL
Runways:1
Longest:(06-24) 450.6m 1,478ft Grass
Distance To
Airport ID:
Nearby VORs <50NM
Nearby NDBs
Nearby WeatherUpdated 12-10-16 19:50 GMT
Nearby weather at EGKA, Shoreham located 19.9 nautical miles from EGKL
Altimeter: 30.06
Visibility: 6.2 statute miles
Wind: 15 knots (220°)
Temp: 12°c 54°f
Humidity: 87.6%

METAR: EGKA 101950Z 22015G25KT 9999 -RA FEW010 BKN014 12/10 Q1018

(Powered by phpweather)
Runway 06 / 24
Dimensions:450.6 x 25m 1478' x 82'ft
Surface:Grass
Runway 06 [A]Runway 24 [B]
Heading:057°TH 237°TH
Lat:
Lng:
50° 52' 50.31"N
0° 9' 11.62"E
50° 52' 58.1"N
0° 9' 30.86"E
Google Map
Nearby Airports
(C) Shoreham 19.9 NM
EGKA (WX) W 260°
(C) London Gatwick 23.8 NM
EGKK (WX) NW 320°
(C) Redhill 26.4 NM
EGKR NNW 330°
(C) Lashenden Headcorn 28.5 NM
EGKH NE 48°
(U) RAF Kenley 31.3 NM
EGKN NNW 339°
(C) Biggin Hill 31.4 NM
EGKB (WX) N 350°
(C) Dunsfold 34.2 NM
EGTD WNW 298°
VFR Chart
Flight Planning at SkyVector.com